User: anonymous   Login
Location: Northam
(31.6525°S, 116.6655°E)
Time: 10:41:24
(UTC+08:00)
Language:

RS-15 - Orbit

View from above orbital plane
View from above orbital plane
View from above satellite
View from above satellite

Ground track
Ground track

The orbit data is extracted from the following two-line orbital elements,

1 23439U 94085A   21206.83979147 -.00000037  00000-0  15882-3 0  9994
2 23439  64.8150 313.8771 0162084 328.5584  30.5729 11.27569941 94669
Epoch (UTC): 25 July 2021 20:09:17
Eccentricity: 0.0162084
inclination: 64.8150°
perigee height: 1886 km
apogee height: 2158 km
right ascension of ascending node: 313.8771°
argument of perigee: 328.5584°
revolutions per day: 11.27569941
mean anomaly at epoch: 30.5729°
orbit number at epoch: 9466

The dashed part of the orbit path shows where the satellite is in the earth's shadow,  

DLR